Weather History for Fremont, NE

Change the Weather History Date:

Thursday, August 29, 2013

  Actual Average Record
Temperature  
Mean Temperature 82 °F -  
Max Temperature 96 °F 85 °F 101 °F (1953)
Min Temperature 67 °F 60 °F 47 °F (1986)
Cooling Degree Days 16    
Growing Degree Days 32 (Base 50)    
Moisture  
Dew Point 71 °F    
Average Humidity 71    
Maximum Humidity 98    
Minimum Humidity 44    
Precipitation  
Precipitation 0.00 in - - ()
Sea Level Pressure  
Sea Level Pressure 29.97 in    
Wind  
Wind Speed 4 mph (SSE)    
Max Wind Speed 13 mph    
Max Gust Speed 20 mph    
Visibility 10 miles    
Events      
Averages and records for this station are not official NWS values.
T = Trace of Precipitation, MM = Missing Value Source: NWS Daily Summary

Daily Weather History Graph

Daily Weather History Graph

Search for Another Location

Airport:

Trip Planner

Search our weather history database for the weather conditions in past years. The results will help you decide how hot, cold, wet, or windy it might be!

Date:

Astronomy

Aug. 29, 2013 Rise Set
Actual Time 6:49 AM CDT 8:03 PM CDT
Civil Twilight 6:20 AM CDT 8:32 PM CDT
Nautical Twilight 5:46 AM CDT 9:06 PM CDT
Astronomical Twilight 5:10 AM CDT 9:42 PM CDT
Moon 12:39 AM CDT (8/29) 3:35 PM CDT (8/29)
Length of Visible Light 14h 11m
Length of Day
13h 13m
Last Quarter, 38% of the Moon is Illuminated
Aug 29
Last Quarter
Sep 5
New
Sep 12
First Quarter
Sep 19
Full
Sep 26
Last Quarter

Hourly Weather History & Observations

Time (CDT) Temp. Heat Index Dew Point Humidity Pressure Visibility Wind Dir Wind Speed Gust Speed Precip Events Conditions
12:15 AM 77.0 °F - 67.6 °F 73% 30.01 in 10.0 mi Calm Calm - N/A   Clear
12:35 AM 74.8 °F - 67.6 °F 78% 30.01 in 10.0 mi SSE 3.5 mph - N/A   Clear
12:55 AM 74.7 °F - 68.0 °F 80% 30.02 in 10.0 mi Calm Calm - N/A   Clear
1:15 AM 74.5 °F - 68.2 °F 81% 30.02 in 10.0 mi SE 3.5 mph - N/A   Clear
1:35 AM 73.9 °F - 68.0 °F 82% 30.02 in 10.0 mi Calm Calm - N/A   Clear
1:55 AM 72.5 °F - 67.8 °F 85% 30.02 in 10.0 mi Calm Calm - N/A   Clear
2:15 AM 73.4 °F - 68.0 °F 83% 30.01 in 10.0 mi Calm Calm - N/A   Clear
2:35 AM 72.1 °F - 68.4 °F 88% 30.01 in 10.0 mi Calm Calm - N/A   Clear
2:55 AM 69.1 °F - 66.4 °F 91% 30.01 in 10.0 mi Calm Calm - N/A   Clear
3:15 AM 71.4 °F - 68.0 °F 89% 30.01 in 10.0 mi Calm Calm - N/A   Clear
3:35 AM 69.8 °F - 67.6 °F 93% 30.01 in 10.0 mi Calm Calm - N/A   Clear
3:55 AM 70.0 °F - 68.0 °F 93% 30.00 in 10.0 mi SE 4.6 mph - N/A   Clear
4:15 AM 71.1 °F - 68.5 °F 92% 30.00 in 10.0 mi Calm Calm - N/A   Clear
4:35 AM 69.3 °F - 66.6 °F 91% 30.00 in 10.0 mi Calm Calm - N/A   Clear
4:55 AM 67.1 °F - 65.3 °F 94% 30.00 in 10.0 mi Calm Calm - N/A   Clear
5:15 AM 68.2 °F - 67.1 °F 96% 30.01 in 10.0 mi East 3.5 mph - N/A   Clear
5:35 AM 69.3 °F - 68.0 °F 96% 30.00 in 10.0 mi Calm Calm - N/A   Clear
5:55 AM 68.7 °F - 67.6 °F 96% 30.01 in 10.0 mi Calm Calm - N/A   Clear
6:15 AM 68.7 °F - 67.8 °F 97% 30.00 in 10.0 mi Calm Calm - N/A   Clear
6:35 AM 68.5 °F - 67.3 °F 96% 30.00 in 10.0 mi Calm Calm - N/A   Clear
6:55 AM 68.4 °F - 67.5 °F 97% 30.01 in 10.0 mi Calm Calm - N/A   Clear
7:15 AM 68.4 °F - 67.1 °F 96% 30.00 in 10.0 mi ESE 3.5 mph - N/A   Clear
7:35 AM 68.7 °F - 68.0 °F 98% 30.01 in 10.0 mi Calm Calm - N/A   Clear
7:55 AM 72.1 °F - 70.5 °F 95% 30.01 in 10.0 mi Calm Calm - N/A   Clear
8:15 AM 74.1 °F - 71.2 °F 91% 30.01 in 10.0 mi Calm Calm - N/A   Clear
8:35 AM 75.4 °F - 71.4 °F 87% 30.01 in 10.0 mi SE 3.5 mph - N/A   Clear
8:55 AM 77.2 °F - 72.0 °F 84% 30.01 in 10.0 mi SE 4.6 mph - N/A   Clear
9:15 AM 78.6 °F - 72.5 °F 81% 30.01 in 10.0 mi SE 5.8 mph - N/A   Clear
9:35 AM 80.4 °F 84.8 °F 72.9 °F 78% 30.01 in 10.0 mi SSE 5.8 mph - N/A   Clear
9:55 AM 81.0 °F 86.0 °F 73.4 °F 78% 30.01 in 10.0 mi SE 5.8 mph - N/A   Clear
10:15 AM 82.8 °F 89.2 °F 74.3 °F 75% 30.01 in 10.0 mi SE 6.9 mph - N/A   Clear
10:35 AM 83.8 °F 91.1 °F 74.3 °F 73% 30.01 in 10.0 mi SE 5.8 mph - N/A   Clear
10:55 AM 85.6 °F 93.4 °F 74.1 °F 68% 30.01 in 10.0 mi SSE 5.8 mph - N/A   Clear
11:15 AM 87.4 °F 96.7 °F 75.0 °F 66% 30.01 in 10.0 mi SE 8.1 mph - N/A   Clear
11:35 AM 87.8 °F 96.6 °F 74.5 °F 64% 30.01 in 10.0 mi SSE 5.8 mph - N/A   Clear
12:15 PM 90.3 °F 98.7 °F 73.2 °F 57% 29.99 in 10.0 mi ESE 10.4 mph - N/A   Clear
12:55 PM 91.4 °F 100.1 °F 73.0 °F 55% 29.97 in 10.0 mi SSE 11.5 mph 16.1 mph N/A   Clear
1:15 PM 92.3 °F 100.9 °F 73.0 °F 53% 29.97 in 10.0 mi SSE 12.7 mph - N/A   Clear
1:35 PM 93.2 °F 101.1 °F 72.3 °F 50% 29.96 in 10.0 mi SE 11.5 mph 19.6 mph N/A   Clear
1:55 PM 93.6 °F 102.5 °F 73.0 °F 51% 29.96 in 10.0 mi SSE 8.1 mph 16.1 mph N/A   Clear
2:15 PM 94.1 °F 101.8 °F 72.0 °F 48% 29.96 in 10.0 mi SSE 11.5 mph 16.1 mph N/A   Clear
2:35 PM 94.5 °F 101.4 °F 70.5 °F 46% 29.95 in 10.0 mi SSE 9.2 mph 17.3 mph N/A   Clear
2:55 PM 95.0 °F 101.9 °F 70.5 °F 45% 29.94 in 10.0 mi South 11.5 mph 17.3 mph N/A   Clear
3:15 PM 95.5 °F 102.4 °F 70.3 °F 44% 29.94 in 10.0 mi South 11.5 mph - N/A   Clear
3:35 PM 95.9 °F 103.2 °F 71.1 °F 44% 29.94 in 10.0 mi South 11.5 mph 16.1 mph N/A   Clear
3:55 PM 95.7 °F 104.1 °F 71.8 °F 46% 29.93 in 10.0 mi South 10.4 mph - N/A   Clear
4:15 PM 95.7 °F 104.1 °F 71.6 °F 46% 29.93 in 10.0 mi South 9.2 mph - N/A   Clear
4:35 PM 96.3 °F 103.9 °F 71.4 °F 44% 29.92 in 10.0 mi SSE 10.4 mph - N/A   Clear
4:55 PM 96.1 °F 103.5 °F 71.1 °F 44% 29.92 in 10.0 mi SSE 9.2 mph - N/A   Clear
5:15 PM 95.9 °F 103.2 °F 71.1 °F 44% 29.92 in 10.0 mi SSE 8.1 mph - N/A   Clear
5:35 PM 95.9 °F 103.2 °F 71.1 °F 44% 29.92 in 10.0 mi SSE 10.4 mph - N/A   Clear
5:55 PM 95.5 °F 103.7 °F 71.6 °F 46% 29.92 in 10.0 mi South 6.9 mph - N/A   Clear
6:15 PM 95.0 °F 102.5 °F 71.4 °F 46% 29.92 in 10.0 mi SSE 9.2 mph - N/A   Clear
6:35 PM 94.1 °F 101.8 °F 71.6 °F 48% 29.91 in 10.0 mi SSE 8.1 mph - N/A   Clear
6:55 PM 93.0 °F 101.3 °F 72.5 °F 51% 29.91 in 10.0 mi SSE 6.9 mph - N/A   Clear
7:15 PM 91.8 °F 99.7 °F 72.7 °F 53% 29.91 in 10.0 mi SSE 5.8 mph - N/A   Clear
7:35 PM 90.3 °F 98.2 °F 72.5 °F 56% 29.91 in 10.0 mi SSE 5.8 mph - N/A   Clear
7:55 PM 88.7 °F 96.2 °F 72.9 °F 59% 29.91 in 10.0 mi SSE 5.8 mph - N/A   Clear
8:15 PM 86.9 °F 94.5 °F 73.2 °F 64% 29.92 in 10.0 mi SSE 4.6 mph - N/A   Clear
8:35 PM 84.9 °F 91.8 °F 73.4 °F 68% 29.92 in 10.0 mi SSE 5.8 mph - N/A   Clear
8:55 PM 83.8 °F 90.4 °F 73.6 °F 71% 29.92 in 10.0 mi SE 5.8 mph - N/A   Clear
9:15 PM 84.0 °F 90.2 °F 73.0 °F 69% 29.92 in 10.0 mi SSE 5.8 mph - N/A   Clear
9:35 PM 84.9 °F 90.7 °F 72.0 °F 65% 29.92 in 10.0 mi SSE 6.9 mph - N/A   Clear
9:55 PM 84.4 °F 90.0 °F 71.8 °F 66% 29.92 in 10.0 mi SE 8.1 mph - N/A   Clear
10:15 PM 83.5 °F 89.1 °F 72.5 °F 69% 29.92 in 10.0 mi SE 9.2 mph - N/A   Clear
10:35 PM 82.4 °F 87.9 °F 72.9 °F 73% 29.92 in 10.0 mi SSE 8.1 mph - N/A   Clear
10:55 PM 82.0 °F 87.7 °F 73.4 °F 75% 29.92 in 10.0 mi SE 8.1 mph - N/A   Clear
11:15 PM 80.8 °F 85.6 °F 73.4 °F 78% 29.92 in 10.0 mi SE 6.9 mph - N/A   Clear
11:35 PM 81.3 °F 86.5 °F 73.4 °F 77% 29.91 in 10.0 mi SSE 6.9 mph - N/A   Clear
11:55 PM 82.6 °F 88.3 °F 73.0 °F 73% 29.91 in 10.0 mi SSE 8.1 mph - N/A   Clear